{"data":{"norad_id":65834,"intl_designator":"2025-221M","name":"STARLINK-35320","alt_names":[],"object_type":"PAYLOAD","status":"ACTIVE","operator":null,"country":"US","launch_date":"2025-09-29","launch_site_code":"AFWTR","launch_vehicle":null,"mission":null,"orbit_class":"UNKNOWN","rcs_meters":null,"size_class":null,"mass_kg":null,"dimensions":null,"purposes":["comms"],"wikipedia_slug":null,"has_3d_model":false,"image_url":null,"decayed_at":null,"tle_current":{"epoch":"2026-05-25T01:43:11.653824Z","epoch_age_seconds":62755,"freshness":"FRESH","line1":"1 65834U 25221M   26145.07166266  .00017499  00000+0  60125-3 0  9996","line2":"2 65834  53.1575  93.8526 0001061  83.1432 276.9689 15.30215465 36420","mean_motion":15.30215465,"eccentricity":0.0001061,"inclination_deg":53.1575,"raan_deg":93.8526,"arg_perigee_deg":83.1432,"mean_anomaly_deg":276.9689,"bstar":0.00060125,"rev_number":3642,"period_min":94.104394638307,"perigee_km":474.44175835044,"apogee_km":475.89602986117,"semimajor_km":6853.3058941058,"source":"CELESTRAK","updated_at":"2026-05-25T13:38:20.944046Z"}}}